CYGL

La Grande Riviere Airport

ICAO Code CYGL
IATA Code YGL
Name La Grande Riviere Airport
Location La Grande Riviere, Quebec, CA
Elevation 640 Feet / 195.1 Meters
Latitude 53.62527778
Longitude -77.70416667
METAR CYGL 130400Z 18009KT 15SM FEW015 BKN025 BKN140 14/12 A2948 RMK SC2SC3AC1 SLP989 DENSITY ALT 1200FT
Extra information Display Charts
Runway Length Width Surface Elevation
13 6487 ft 150 ft ASP 595 ft
31 6487 ft 150 ft ASP 640 ft

Mandatory Routes

La Grande Riviere Airport

Direction Destination Level Remark Type Route
DEP TO CYUL H&L RNAV OBRET